�������l�o���
Date,Time,MP-1(��Sv/h),MP-2(��Sv/h),MP-3(��Sv/h),MP-4(��Sv/h),MP-5(��Sv/h),MP-6(��Sv/h),MP-7(��Sv/h),MP-8(��Sv/h),����,����(m/s),���J
2023/07/18,00:00,0.530,0.808,0.495,0.974,0.717,0.326,0.567,0.532,���쐼,2.0,��
2023/07/18,00:10,0.531,0.808,0.495,0.975,0.717,0.324,0.568,0.532,��,1.5,��
2023/07/18,00:20,0.530,0.809,0.494,0.976,0.717,0.326,0.568,0.531,���k��,0.6,��
2023/07/18,00:30,0.531,0.809,0.494,0.975,0.715,0.324,0.569,0.531,���쐼,0.6,��
2023/07/18,00:40,0.528,0.808,0.496,0.978,0.717,0.325,0.568,0.531,�k��,0.6,��
2023/07/18,00:50,0.530,0.809,0.494,0.975,0.718,0.326,0.568,0.532,���쐼,0.9,��
2023/07/18,01:00,0.529,0.808,0.494,0.974,0.716,0.326,0.568,0.532,�쐼,3.2,��
2023/07/18,01:10,0.530,0.807,0.495,0.975,0.715,0.325,0.569,0.531,�쐼,3.2,��
2023/07/18,01:20,0.530,0.810,0.493,0.974,0.716,0.326,0.568,0.530,��쐼,2.3,��
2023/07/18,01:30,0.529,0.810,0.496,0.974,0.718,0.324,0.569,0.531,�쐼,2.0,��
2023/07/18,01:40,0.530,0.808,0.493,0.973,0.716,0.325,0.568,0.531,��쐼,2.6,��
2023/07/18,01:50,0.530,0.807,0.494,0.974,0.715,0.327,0.567,0.532,�쐼,1.5,��
2023/07/18,02:00,0.530,0.807,0.494,0.976,0.716,0.326,0.567,0.530,�쐼,1.7,��
2023/07/18,02:10,0.528,0.808,0.493,0.975,0.717,0.326,0.568,0.532,���쐼,3.1,��
2023/07/18,02:20,0.530,0.806,0.494,0.976,0.716,0.325,0.570,0.531,��,2.3,��
2023/07/18,02:30,0.529,0.808,0.493,0.976,0.717,0.325,0.568,0.531,��,2.3,��
2023/07/18,02:40,0.530,0.807,0.495,0.974,0.718,0.326,0.568,0.530,���쐼,3.8,��
2023/07/18,02:50,0.531,0.808,0.494,0.974,0.716,0.325,0.568,0.531,�쐼,3.1,��
2023/07/18,03:00,0.530,0.808,0.493,0.976,0.715,0.325,0.569,0.531,���쐼,3.0,��
2023/07/18,03:10,0.530,0.806,0.493,0.975,0.715,0.325,0.567,0.532,���쐼,2.6,��
2023/07/18,03:20,0.529,0.808,0.493,0.975,0.717,0.324,0.567,0.530,���쐼,3.5,��
2023/07/18,03:30,0.530,0.807,0.495,0.974,0.719,0.325,0.567,0.532,���쐼,4.0,��
2023/07/18,03:40,0.530,0.808,0.493,0.974,0.716,0.326,0.569,0.530,�쐼,4.1,��
2023/07/18,03:50,0.530,0.809,0.493,0.975,0.718,0.327,0.568,0.531,���쐼,5.8,��
2023/07/18,04:00,0.531,0.808,0.494,0.974,0.717,0.326,0.569,0.531,���쐼,6.3,��
2023/07/18,04:10,0.529,0.810,0.494,0.974,0.716,0.325,0.568,0.532,��,3.5,��
2023/07/18,04:20,0.530,0.806,0.493,0.974,0.715,0.325,0.566,0.532,��,1.5,��
2023/07/18,04:30,0.530,0.809,0.494,0.974,0.716,0.324,0.567,0.532,���k��,3.3,��
2023/07/18,04:40,0.530,0.808,0.492,0.973,0.716,0.324,0.568,0.531,��,2.3,��
2023/07/18,04:50,0.529,0.809,0.494,0.975,0.717,0.325,0.568,0.531,�k��,0.8,��
2023/07/18,05:00,0.529,0.808,0.493,0.974,0.715,0.324,0.567,0.531,���k��,0.9,��
2023/07/18,05:10,0.530,0.808,0.494,0.974,0.716,0.325,0.568,0.532,�k,1.9,��
2023/07/18,05:20,0.530,0.808,0.495,0.975,0.716,0.325,0.569,0.531,�k��,1.5,��
2023/07/18,05:30,0.531,0.811,0.493,0.976,0.716,0.325,0.570,0.534,�k��,1.5,��
2023/07/18,05:40,0.531,0.809,0.494,0.976,0.717,0.324,0.568,0.531,�k,1.5,��
2023/07/18,05:50,0.530,0.807,0.494,0.975,0.717,0.324,0.569,0.532,�k,2.3,��
2023/07/18,06:00,0.529,0.811,0.492,0.975,0.717,0.325,0.570,0.532,�k�k��,1.9,��
2023/07/18,06:10,0.531,0.807,0.493,0.975,0.715,0.325,0.568,0.534,�k,2.2,��
2023/07/18,06:20,0.530,0.808,0.493,0.974,0.717,0.325,0.570,0.532,�k,2.5,��
2023/07/18,06:30,0.531,0.808,0.494,0.975,0.716,0.324,0.570,0.533,�k,2.3,��
2023/07/18,06:40,0.530,0.808,0.495,0.974,0.717,0.324,0.569,0.533,�k�k��,3.6,��
2023/07/18,06:50,0.530,0.807,0.494,0.975,0.716,0.326,0.569,0.531,�k��,4.2,��
2023/07/18,07:00,0.529,0.810,0.495,0.976,0.717,0.325,0.570,0.533,�k�k��,3.6,��
2023/07/18,07:10,0.528,0.808,0.492,0.976,0.717,0.325,0.570,0.531,�k��,3.8,��
2023/07/18,07:20,0.529,0.808,0.496,0.974,0.719,0.324,0.570,0.533,���k��,1.5,��
2023/07/18,07:30,0.530,0.810,0.496,0.976,0.719,0.326,0.571,0.533,���k��,1.5,��
2023/07/18,07:40,0.531,0.810,0.493,0.975,0.719,0.326,0.571,0.533,���k��,1.9,��
2023/07/18,07:50,0.529,0.808,0.493,0.977,0.718,0.325,0.570,0.533,�k�k��,3.5,��
2023/07/18,08:00,0.530,0.807,0.493,0.976,0.719,0.326,0.570,0.533,�k�k��,2.6,��
2023/07/18,08:10,0.530,0.808,0.492,0.976,0.717,0.325,0.569,0.533,�k�k��,2.6,��
2023/07/18,08:20,0.529,0.806,0.493,0.975,0.715,0.324,0.570,0.533,�k�k��,2.9,��
2023/07/18,08:30,0.530,0.806,0.495,0.976,0.717,0.325,0.570,0.533,�k��,2.2,��
2023/07/18,08:40,0.531,0.809,0.492,0.978,0.717,0.325,0.570,0.533,���쓌,1.7,��
2023/07/18,08:50,0.530,0.810,0.493,0.979,0.716,0.326,0.569,0.534,�쓌,2.0,��
2023/07/18,09:00,0.530,0.810,0.494,0.977,0.717,0.325,0.571,0.531,�쓌,2.2,��
2023/07/18,09:10,0.532,0.810,0.494,0.978,0.719,0.326,0.570,0.532,�쓌,2.8,��
2023/07/18,09:20,0.529,0.811,0.493,0.979,0.715,0.326,0.571,0.531,�쓌,2.8,��
2023/07/18,09:30,0.530,0.813,0.494,0.978,0.716,0.325,0.569,0.533,�쓌,3.0,��
2023/07/18,09:40,0.530,0.811,0.494,0.978,0.718,0.324,0.569,0.531,�쓌,2.2,��
2023/07/18,09:50,0.531,0.812,0.495,0.978,0.719,0.325,0.570,0.531,�쓌,1.7,��
2023/07/18,10:00,0.531,0.810,0.495,0.979,0.719,0.325,0.570,0.531,�쓌,2.3,��
2023/07/18,10:10,0.533,0.811,0.496,0.978,0.718,0.324,0.570,0.532,�쓌,2.6,��
2023/07/18,10:20,0.531,0.810,0.495,0.982,0.720,0.325,0.569,0.531,�쓌,2.3,��
2023/07/18,10:30,0.531,0.810,0.497,0.979,0.720,0.326,0.568,0.532,�쓌,3.7,��
2023/07/18,10:40,0.531,0.812,0.497,0.980,0.721,0.324,0.569,0.533,�쓌,3.7,��
2023/07/18,10:50,0.534,0.809,0.498,0.979,0.721,0.324,0.569,0.531,�쓌,3.7,��
2023/07/18,11:00,0.533,0.815,0.498,0.977,0.721,0.325,0.570,0.533,�쓌,3.6,��
2023/07/18,11:10,0.533,0.813,0.498,0.978,0.720,0.325,0.569,0.532,�쓌,5.0,��
2023/07/18,11:20,0.533,0.815,0.496,0.978,0.723,0.326,0.570,0.531,�쓌,4.3,��
2023/07/18,11:30,0.534,0.815,0.500,0.977,0.722,0.325,0.569,0.533,��쓌,3.9,��
2023/07/18,11:40,0.534,0.816,0.499,0.978,0.724,0.326,0.569,0.533,��쓌,4.5,��
2023/07/18,11:50,0.533,0.815,0.498,0.976,0.722,0.326,0.569,0.534,�쓌,4.3,��
2023/07/18,12:00,0.533,0.814,0.500,0.979,0.724,0.326,0.570,0.532,��쓌,4.7,��
2023/07/18,12:10,0.533,0.816,0.499,0.978,0.723,0.326,0.569,0.534,��쓌,5.2,��
2023/07/18,12:20,0.534,0.817,0.497,0.980,0.722,0.325,0.569,0.533,��쓌,5.0,��
2023/07/18,12:30,0.534,0.817,0.499,0.981,0.725,0.327,0.571,0.534,�쓌,5.3,��
2023/07/18,12:40,0.535,0.819,0.498,0.981,0.724,0.326,0.569,0.536,�쓌,4.7,��
2023/07/18,12:50,0.534,0.816,0.500,0.980,0.723,0.326,0.568,0.535,�쓌,5.3,��
2023/07/18,13:00,0.535,0.817,0.498,0.981,0.726,0.325,0.569,0.535,�쓌,5.7,��
2023/07/18,13:10,0.536,0.815,0.500,0.980,0.725,0.326,0.571,0.534,�쓌,5.9,��
2023/07/18,13:20,0.537,0.815,0.498,0.980,0.725,0.327,0.571,0.534,�쓌,2.9,��
2023/07/18,13:30,0.536,0.816,0.500,0.978,0.725,0.328,0.571,0.536,���쓌,1.7,��
2023/07/18,13:40,0.536,0.816,0.498,0.982,0.727,0.326,0.571,0.535,��,4.2,��
2023/07/18,13:50,0.536,0.816,0.499,0.980,0.726,0.328,0.571,0.536,��,4.7,��
2023/07/18,14:00,0.536,0.817,0.499,0.980,0.726,0.327,0.572,0.534,��,5.6,��
2023/07/18,14:10,0.536,0.816,0.498,0.980,0.725,0.326,0.572,0.535,���k��,3.0,��
2023/07/18,14:20,0.537,0.817,0.499,0.981,0.725,0.328,0.573,0.535,���쐼,2.8,��
2023/07/18,14:30,0.536,0.818,0.500,0.981,0.727,0.328,0.574,0.536,��,2.3,��
2023/07/18,14:40,0.536,0.819,0.499,0.985,0.728,0.328,0.572,0.537,���쐼,3.8,��
2023/07/18,14:50,0.538,0.818,0.499,0.984,0.728,0.329,0.572,0.536,���쐼,4.5,��
2023/07/18,15:00,0.539,0.818,0.498,0.988,0.727,0.328,0.573,0.536,���쐼,4.8,��
2023/07/18,15:10,0.540,0.821,0.493,0.986,0.727,0.326,0.573,0.535,�쐼,5.3,��
2023/07/18,15:20,0.536,0.818,0.498,0.985,0.725,0.326,0.573,0.535,�쐼,5.0,�L
2023/07/18,15:30,0.537,0.818,0.495,0.986,0.726,0.327,0.571,0.535,���쐼,3.3,�L
2023/07/18,15:40,0.536,0.818,0.496,0.983,0.725,0.326,0.572,0.534,���쐼,4.2,��
2023/07/18,15:50,0.537,0.820,0.494,0.985,0.725,0.322,0.571,0.533,�쐼,3.1,�L
2023/07/18,16:00,0.536,0.816,0.495,0.986,0.724,0.325,0.571,0.534,���쐼,2.6,�L
2023/07/18,16:10,0.535,0.818,0.495,0.983,0.724,0.322,0.572,0.535,��,2.6,�L
2023/07/18,16:20,0.535,0.815,0.495,0.983,0.725,0.324,0.572,0.533,��,2.5,�L
2023/07/18,16:30,0.534,0.815,0.497,0.983,0.726,0.321,0.572,0.533,���쐼,2.0,�L
2023/07/18,16:40,0.535,0.818,0.496,0.984,0.725,0.323,0.573,0.533,���쐼,1.9,��
2023/07/18,16:50,0.534,0.815,0.496,0.986,0.724,0.322,0.572,0.533,��,1.4,��
2023/07/18,17:00,0.536,0.815,0.496,0.982,0.725,0.324,0.571,0.534,�쐼,1.2,��
2023/07/18,17:10,0.536,0.816,0.496,0.983,0.725,0.323,0.571,0.533,�쐼,1.7,��
2023/07/18,17:20,0.536,0.817,0.498,0.983,0.724,0.322,0.571,0.533,�쐼,2.0,��
2023/07/18,17:30,0.535,0.815,0.497,0.985,0.725,0.324,0.571,0.532,�쐼,1.4,��
2023/07/18,17:40,0.536,0.817,0.495,0.985,0.726,0.324,0.571,0.532,��쐼,2.0,��
2023/07/18,17:50,0.536,0.817,0.496,0.983,0.724,0.323,0.571,0.533,��,2.5,��
2023/07/18,18:00,0.536,0.816,0.496,0.983,0.725,0.324,0.570,0.532,��,2.6,��
2023/07/18,18:10,0.536,0.817,0.498,0.981,0.724,0.326,0.571,0.533,��쐼,2.3,��
2023/07/18,18:20,0.535,0.816,0.496,0.983,0.725,0.325,0.571,0.533,��쐼,2.6,��
2023/07/18,18:30,0.534,0.817,0.496,0.986,0.725,0.325,0.570,0.534,��쐼,3.2,��
2023/07/18,18:40,0.538,0.816,0.497,0.984,0.723,0.324,0.570,0.534,��쐼,3.3,��
2023/07/18,18:50,0.535,0.817,0.498,0.984,0.726,0.323,0.570,0.532,��쐼,3.2,��
2023/07/18,19:00,0.534,0.817,0.496,0.984,0.725,0.326,0.571,0.534,�쐼,3.1,��
2023/07/18,19:10,0.535,0.818,0.496,0.984,0.724,0.324,0.570,0.535,�쐼,3.2,��
2023/07/18,19:20,0.535,0.816,0.497,0.985,0.725,0.324,0.572,0.533,��쐼,3.4,��
2023/07/18,19:30,0.534,0.818,0.496,0.984,0.726,0.325,0.570,0.533,�쐼,3.5,��
2023/07/18,19:40,0.536,0.817,0.497,0.983,0.726,0.325,0.571,0.535,�쐼,3.5,��
2023/07/18,19:50,0.536,0.817,0.495,0.986,0.726,0.325,0.570,0.533,���쐼,2.3,��
2023/07/18,20:00,0.535,0.816,0.497,0.983,0.725,0.327,0.571,0.534,��,2.2,��
2023/07/18,20:10,0.536,0.817,0.496,0.984,0.724,0.324,0.571,0.533,��,2.2,��
2023/07/18,20:20,0.536,0.818,0.498,0.986,0.725,0.324,0.572,0.534,���쐼,1.7,��
2023/07/18,20:30,0.537,0.818,0.497,0.985,0.725,0.325,0.572,0.532,��,1.5,��
2023/07/18,20:40,0.536,0.816,0.497,0.985,0.726,0.325,0.571,0.533,���k��,1.2,��
2023/07/18,20:50,0.536,0.816,0.497,0.984,0.726,0.325,0.572,0.534,�k��,0.6,��
2023/07/18,21:00,0.536,0.814,0.498,0.986,0.726,0.325,0.572,0.533,���k��,1.4,��
2023/07/18,21:10,0.536,0.817,0.497,0.985,0.726,0.326,0.571,0.533,�쐼,1.2,��
2023/07/18,21:20,0.536,0.816,0.498,0.985,0.727,0.326,0.571,0.533,���쐼,0.9,��
2023/07/18,21:30,0.536,0.819,0.498,0.986,0.727,0.326,0.571,0.535,�k,2.6,��
2023/07/18,21:40,0.536,0.817,0.498,0.985,0.725,0.325,0.571,0.534,�k,3.7,��
2023/07/18,21:50,0.536,0.820,0.498,0.989,0.725,0.325,0.571,0.534,�k,4.0,��
2023/07/18,22:00,0.536,0.821,0.497,0.984,0.726,0.326,0.573,0.534,�k,5.0,��
2023/07/18,22:10,0.535,0.817,0.497,0.986,0.726,0.327,0.572,0.533,�k,5.8,��
2023/07/18,22:20,0.535,0.817,0.497,0.984,0.727,0.325,0.571,0.533,�k,6.7,��
2023/07/18,22:30,0.535,0.818,0.497,0.985,0.725,0.324,0.570,0.533,�k,6.2,��
2023/07/18,22:40,0.535,0.817,0.494,0.986,0.726,0.324,0.570,0.534,�k,5.9,��
2023/07/18,22:50,0.536,0.819,0.495,0.984,0.725,0.326,0.570,0.534,�k,4.8,��
2023/07/18,23:00,0.533,0.817,0.496,0.984,0.724,0.324,0.571,0.534,�k�k��,3.7,��
2023/07/18,23:10,0.537,0.818,0.497,0.986,0.724,0.324,0.568,0.532,�k,4.0,��
2023/07/18,23:20,0.536,0.818,0.497,0.985,0.725,0.325,0.570,0.536,�k�k��,3.3,��
2023/07/18,23:30,0.534,0.818,0.495,0.985,0.725,0.323,0.569,0.533,�k,3.1,��
2023/07/18,23:40,0.535,0.817,0.496,0.985,0.724,0.323,0.569,0.533,�k,3.4,��
2023/07/18,23:50,0.533,0.817,0.495,0.988,0.725,0.325,0.569,0.533,�k,3.0,��
